Location: Unspecified
(52.4292°N, 19.3359°E)
Time: 15:28:11
(UTC+02:00)

Transit 2A Rocket - Pass Details

Date: 26 May 2024
Orbit: 583 x 910 km, 66.7° (Epoch: 22 June)

Event Time Altitude Azimuth Distance (km) Brightness Sun altitude
Rises 07:44:50 0° 295° (WNW) 3,220 7.7 26.5°
Reaches altitude 10° 07:47:53 10° 314° (NW) 2,359 7.2 27.0°
Maximum altitude 07:51:42 19° 358° (N) 1,883 7.2 27.5°
Drops below altitude 10° 07:55:44 10° 43° (NE) 2,501 8.3 28.2°
Sets 07:59:05 0° 60° (ENE) 3,485 9.2 28.7°
